Flag for Micronesia Weather past 2 weeks in Colonia, Yap, Micronesia

Now
80 °F

Broken clouds.


Feels Like: 85 °F
Forecast: 78 / 85 °F
Wind: 8 mph from Northeast

Location: Yap Island

Current Time: Mar 3, 2015 at 7:23:38 PM

Latest Report: Mar 3, 2015 at 6:54 PM


Visibility: 12 mi

Pressure: 29.79 "Hg

Humidity: 82%

Dew point: 74 °F

Location of ColoniaLocation

Historic Weather in Colonia — Graph

°F

Colonia temperature yesterday

Maximum temperature yesterday: 85 °F (at 11:50 AM)
Minimum temperature yesterday: 78 °F (at 4:51 AM)
Average temperature yesterday: 81 °F

Past Weeks' High & Low Weather Summary

 TemperatureHumidityPressure
High87 °F (Feb 18, 12:51 PM)97% (Feb 23, 11:55 AM)29.96 "Hg (Feb 23, 11:55 AM)
Low72 °F (Feb 23, 9:50 AM)58% (Feb 20, 11:51 AM)29.72 "Hg (Mar 2, 3:50 PM)
Average80 °F79%29.84 "Hg
* Reported Feb 16 5:50 PM — Mar 3 5:52 PM, Colonia, Weather by CustomWeather, © 2015

Note: Actual official high and low records may vary slightly from our data, if they occured in-between our weather recording intervals... More about our weather records

Advertising

Colonia weather history for previous 24 hours

 ConditionsComfort  
Time TempWeatherWind HumidityBarometerVisibility
5:52 PM
Tue, Mar 3
83 °FWarm.8 mph77%29.78 "Hg12 mi
4:51 PM84 °FPartly sunny.12 mph75%29.77 "Hg12 mi
3:54 PM82 °FBroken clouds.9 mph83%29.78 "Hg12 mi
2:54 PM77 °FSprinkles. Cloudy.6 mph88%29.78 "Hg11 mi
1:50 PM77 °FSprinkles. Cloudy.9 mph89%29.81 "Hg10 mi
12:50 PM82 °FCloudy.6 mph83%29.83 "Hg12 mi
11:53 AM86 °FMostly cloudy.13 mph75%29.84 "Hg12 mi
10:53 AM84 °FMore clouds than sun.7 mph77%29.85 "Hg12 mi
9:52 AM83 °FMostly cloudy.9 mph78%29.85 "Hg12 mi
8:52 AM80 °FCloudy.12 mph87%29.85 "Hg12 mi
7:51 AM78 °FMostly cloudy.6 mph92%29.83 "Hg12 mi
6:52 AM77 °FMostly cloudy.7 mph92%29.81 "Hg12 mi
5:56 AM78 °FOvercast.6 mph93%29.79 "Hg12 mi
4:58 AM77 °FOvercast.7 mph92%29.78 "Hg12 mi
3:53 AM79 °FOvercast.7 mph88%29.78 "Hg12 mi
2:52 AM79 °FOvercast.7 mph87%29.80 "Hg12 mi
1:50 AM79 °FOvercast.8 mph87%29.80 "Hg12 mi
12:57 AM79 °FOvercast.3 mph89%29.81 "Hg12 mi
11:57 PM
Mon, Mar 2
80 °FOvercast.6 mph86%29.83 "Hg12 mi
10:55 PM79 °FMostly cloudy.7 mph86%29.82 "Hg12 mi
9:54 PM79 °FMostly cloudy.8 mph84%29.80 "Hg12 mi
8:50 PM79 °FMostly cloudy.9 mph84%29.78 "Hg12 mi
7:53 PM80 °FCloudy.12 mph80%29.77 "Hg12 mi
Weather by CustomWeather, © 2015

See weather overviewHow to use our weather pages